Погода в Массандре

Россия / Республика Крым     44°30′52″N   34°11′09″E
темп.,
°C
ветер,
м/с
пор.,
м/с
влажн.,
%
обл.,
%
осадки,
мм/ч
давл.,
гПа
погр.,
м
11 апреля, вс
вс1100:00+6сз556690 0.0 1023152
03:00+6ссз566898 0.0 1022130
06:00+7ссз576994 0.0 1022174
09:00+9с476494 0.1 1022373
12:00+8с1278100 0.3 1021200
15:00+8с3676100 0.9 1022464
18:00+8сз4577100 1.5 1020152
21:00+9сз2381100 2.4 102145
12 апреля, пн
пн1200:00+8сз2286100 1.3 102043
03:00+8ссв2391100 6.9 1019134
06:00+8ссв1286100 3.1 101858
09:00+7всв3393100 3.3 1020238
12:00+8всв4593100 0.1 1020366
15:00+8всв339255 0.1 1020226
18:00+8ююв119057 0.1 1020112
21:00+8ю119164 0.1 102128
13 апреля, вт
вт1300:00+8з229140 0.0 1021147
03:00+8зюз238719 0.0 1022115
06:00+7з228514 0.0 102232
09:00+8ююз238891 0.1 1022277
12:00+8ююз439096 0.0 1023331
15:00+8юз338998 0.1 1022261
18:00+8ююз338479 0.0 1021233
21:00+7юз118425 0.0 1022224
14 апреля, ср
ср1400:00+6всв01860 0.0 1021126
03:00+6с11850 0.0 1020123
06:00+6св22860 0.0 1020157
09:00+7всв33826 0.0 1020245
12:00+8всв3480100 0.0 1019269
15:00+9св347392 0.0 1018227
18:00+9св3475100 0.0 1018227
21:00+8св458033 0.0 1017170
15 апреля, чт
чт1500:00+8св5682100 0.0 1016236
03:00+8ссв3380100 0.1 101583
06:00+8с238348 0.1 101564
09:00+9ююв228424 0.3 1015155
12:00+11юз567996 0.0 1015492
15:00+13зюз685648 0.0 1014541
18:00+12з34573 0.0 1014284
21:00+10зсз117089 0.0 101527